www.pogodaiklimat.ru

Погода и климат >> Архив погоды >> Индонезия >> Гесер


ПОГОДА в Гесере

  • Прогноз погоды в Гесере
  • Монитор погоды в Гесере

АРХИВ ПОГОДЫ в Гесере

Время (UTC), дата Ветер
(напр.,м/с)
 
Видим.   Явления Облачность Т
(С)
Тd
(С)
f
(%)
Тe
(С)
Тes
(С)
Комфортность P
(гПа)
Po
(гПа)
Тmin
(С)
Tmax
(С)
R
(мм)
R24
(мм)
S
(см)
00 10.09 ЮВ 3 7000 м мгла 6/3 450 м
[Cu med, cong Ac lent Ci sp]
+26.0 +21.1 74 +33 +37 очень
душно
1013.4 1013.2 +24.4
03 10.09 Ю 5 7000 м мгла 5/3 450 м
[Cu med, cong Ac lent Ci sp]
+27.0 +21.6 72 +34 +41 очень
душно
1012.4 1012.2
06 10.09 Ю 5 7000 м дым 6/3 450 м
[Cu med, cong Ac trans Ci sp]
+26.2 +22.0 78 +34 +37 очень
душно
1010.8 1010.6
09 10.09 Ю 7 6000 м дым 8/3 450 м
[Cu med, cong Ac trans Ci sp]
+25.4 +21.4 79 +32 +32 очень
душно
1011.3 1011.1
12 10.09 Ю 5 6000 м дым 6/3 450 м
[Cu med, cong Ac trans Ci sp]
+24.8 +23.1 90 +33 +33 очень
душно
1013.7 1013.5 +28.4
15 10.09 Ю 5 6000 м мгла 8/4 420 м
[Cb cap Ac trans Ci sp]
+24.8 +21.7 83 +32 +32 очень
душно
1014.1 1013.9
18 10.09 Ю 5 6000 м мгла 9/4 420 м
[Cb cap Ac trans Ci sp]
+24.6 +21.8 84 +31 +31 очень
душно
1013.3 1013.1
00 11.09 Ю 4 7000 м мгла 6/3 450 м
[Cu med, cong Ac trans Ci sp]
+26.0 +21.8 78 +33 +37 очень
душно
1015.1 1014.9 +24.8
03 11.09 Ю 6 6000 м дым 6/3 450 м
[Cu Sc Ac trans Ci sp]
+27.2 +21.8 72 +35 +40 очень
душно
1014.1 1013.9
06 11.09 Ю 5 6000 м дым {туман} 6/3 450 м
[Cu med, cong Ac trans Ci sp]
+27.2 +22.4 75 +36 +39 очень
душно
1011.4 1011.2
09 11.09 Ю 5 6000 м дым 6/3 450 м
[Cu med, cong Ac trans Ci sp]
+25.6 +21.6 79 +33 +33 очень
душно
1012.2 1012.0
12 11.09 ЮВ 3 6000 м мгла 9/4 420 м
[Cb calv Ac trans Ci fib]
+24.9 +22.3 85 +32 +32 очень
душно
1014.0 1014.0 +28.2
15 11.09 Ю 6 6000 м мгла 9/4 420 м
[Cb cap Ac trans Ci fib]
+25.0 +24.0 94 +34 +34 очень
душно
1014.3 1014.1
18 11.09 ЮВ 4 6000 м мгла {дождь} 9/5 420 м
[Cb cap Ac As Cs]
+24.4 +22.5 89 +32 +32 очень
душно
1013.5 1013.2 4
00 12.09 ЮВ 5 7000 м мгла 6/3 450 м
[Cu med, cong Ac trans Ci sp]
+25.8 +21.2 76 +33 +36 очень
душно
1015.3 1015.1 +23.6
03 12.09 Ю 6 7000 м мгла 6/3 450 м
[Cu med, cong Ac trans Ci sp]
+27.6 +23.8 80 +38 +43 очень
душно
1014.2 1014.0
06 12.09 штиль 0 50 км мгла ?/? +26.3 +21.6 75 +34 +34 очень
душно
1011.8 1011.6
09 12.09 В 3 4000 м слаб. дождь 10/5 420 м
[Cb cap Ac As Ci sp]
+23.9 +21.6 87 +31 +31 очень
душно
1012.0 1011.8 3
12 12.09 В 5 7000 м мгла 5/4 420 м
[Cb cap Ac trans Ci sp]
+24.6 +21.5 83 +31 +31 очень
душно
1013.8 1013.6 +27.8 3
15 12.09 В 3 7000 м мгла 5/3 450 м
[Cu med, cong Ac trans Ci sp]
+24.4 +21.6 84 +31 +31 очень
душно
1013.6 1013.4
18 12.09 ЮВ 3 6000 м осадки на расстоянии 10/5 420 м
[Cb cap Ac As Cs]
+24.8 +22.3 86 +32 +32 очень
душно
1012.8 1012.6
00 13.09 ЮВ 3 7000 м мгла 8/3 480 м
[Cu med, cong Ac trans Ci fib]
+26.0 +22.7 82 +34 +38 очень
душно
1015.0 1014.8 +24.0 3
03 13.09 ЮВ 4 7000 м мгла 8/3 480 м
[Cu med, cong Ac trans Ci fib]
+27.6 +23.0 76 +37 +44 очень
душно
1013.6 1013.4
06 13.09 Ю 5 6000 м мгла 9/4 420 м
[Cb cap Ac As Cs]
+26.4 +22.8 81 +35 +37 очень
душно
1011.3 1011.1
09 13.09 Ю 4 6000 м в посл. час дождь 9/4 420 м
[Cb cap Ac As Cs]
+25.0 +23.2 90 +33 +33 очень
душно
1011.5 1011.3 0.1
12 13.09 ЮВ 3 6000 м мгла 9/4 420 м
[Cb cap Ac trans Ci sp]
+24.8 +22.8 89 +33 +33 очень
душно
1013.6 1013.4 +28.4 0.1
15 13.09 ЮВ 3 6000 м мгла 9/4 420 м
[Cb cap Ac trans Ci sp]
+25.0 +22.8 88 +33 +33 очень
душно
1014.1 1013.9
18 13.09 ЮВ 2 6000 м мгла 9/5 420 м
[Cb cap Ac As Ci fib]
+25.0 +22.6 87 +33 +33 очень
душно
1013.1 1012.9
00 14.09 ЮВ 3 6000 м мгла 9/4 420 м
[Cb cap Ac As Cs]
+26.2 +22.6 81 +35 +38 очень
душно
1015.1 1014.9 +24.2 0.1
03 14.09 ЮВ 2 6000 м мгла 9/4 420 м
[Cb cap Ac As Ci sp]
+28.4 +22.8 72 +38 +45 очень
душно
1013.9 1013.7
06 14.09 ЮВ 2 6000 м осадки на расстоянии 9/4 420 м
[Cb cap Ac As Ci sp]
+26.6 +22.7 79 +35 +40 очень
душно
1011.3 1011.1
09 14.09 Ю 5 6000 м мгла 6/4 420 м
[Cb cap Ac trans Ci sp]
+25.2 +23.0 88 +34 +34 очень
душно
1012.0 1011.8
12 14.09 Ю 5 6000 м осадки на расстоянии 9/6 420 м
[Cb cap Ac trans Ci sp]
+24.8 +22.9 89 +33 +33 очень
душно
1013.3 1013.1 +24.8
15 14.09 В 4 6000 м осадки на расстоянии 9/5 420 м
[Cb cap Ac As Ci sp]
+24.6 +22.7 89 +32 +32 очень
душно
1014.5 1013.3 0.3
18 14.09 В 4 6000 м мгла {дождь} 9/5 420 м
[Cb cap Ac As Cs]
+24.4 +22.2 88 +32 +32 очень
душно
1012.6 1012.4 0.3
00 15.09 ЮВ 1 6000 м мгла 8/3 450 м
[Cu med, cong Ac trans Ci sp]
+26.8 +23.2 81 +36 +41 очень
душно
1014.4 1014.2 +24.4 0.3
03 15.09 ЮВ 2 6000 м мгла 9/3 450 м
[Cu med, cong Ac trans Ci sp]
+28.0 +23.0 74 +37 +46 очень
душно
1013.2 1013.0
06 15.09 ЮВ 2 6000 м мгла 8/4 420 м
[Cb cap Ac trans Ci sp]
+28.0 +23.0 74 +37 +42 очень
душно
1011.2 1011.0
09 15.09 ЮВ 1 6000 м мгла 6/4 420 м
[Cb cap Ac trans Ci sp]
+26.0 +22.7 82 +34 +34 очень
душно
1011.4 1011.2
12 15.09 ЮВ 3 6000 м мгла 6/4 420 м
[Cb cap Ac trans Ci sp]
+25.0 +22.6 87 +33 +33 очень
душно
1013.2 1013.0 +29.2
15 15.09 ЮВ 5 6000 м осадки на расстоянии 9/6 420 м
[Cb cap Ac trans Ci sp]
+25.0 +22.9 88 +33 +33 очень
душно
1013.5 1013.3
18 15.09 ЮВ 2 7000 м мгла 6/4 420 м
[Cb cap Ac trans Ci sp]
+24.2 +22.3 89 +31 +31 очень
душно
1012.7 1012.5
00 16.09 ЮВ 1 7000 м осадки на расстоянии 9/4 420 м
[Cb cap Ac As Cs]
+26.4 +23.6 85 +36 +40 очень
душно
1014.3 1014.1 +24.0
03 16.09 ЮВ 2 7000 м мгла 6/3 450 м
[Cu med, cong Ac trans Ci sp]
+28.2 +23.8 77 +39 +52 опасность
солнечного
удара
1013.1 1012.9
06 16.09 Ю 4 7000 м мгла 9/4 420 м
[Cb cap Ac trans Ci sp]
+26.6 +23.3 82 +36 +39 очень
душно
1011.5 1011.3
09 16.09 Ю 2 7000 м мгла 8/1 450 м
[Cu med, cong Ac trans Ci sp]
+25.8 +23.9 89 +35 +35 очень
душно
1010.9 1010.7
12 16.09 ЮВ 1 7000 м мгла 8/1 480 м
[Cu hum Ac trans Ci sp]
+24.8 +23.5 92 +33 +33 очень
душно
1012.8 1012.6 +28.8
15 16.09 ЮВ 2 6000 м осадки на расстоянии 9/6 420 м
[Cb cap Ac trans Ci sp]
+24.6 +23.6 94 +33 +33 очень
душно
1012.8 1012.6
18 16.09 В 2 7000 м мгла 6/4 420 м
[Cb cap Ac trans Ci sp]
+24.4 +23.4 94 +33 +33 очень
душно
1011.7 1011.5

 

Местоположение метеостанции Гесер (Индонезия): широта -3.80 долгота 130.83 высота над уровнем моря 3 м.

В архиве по умолчанию представлена погода в Гесере за последнюю неделю. Архивные данные за месяц целиком и за предыдущие месяцы, начиная с января 2011 года, Вы можете получить, выбрав интересующий диапазон дат из раскрывающегося списка и нажав кнопку "Ввод!".


*Определитесь, кто Вы:
робот инопланетянин человек

Внимание! Время в таблицах - всемирное. Для получения местного времени необходимо прибавить поправку, которая равна 9 ч.

Смотрите также архив погоды в соседних городах и на ближайших метеорологических станциях:

Погода в Неира (Индонезия) (131 км)
Погода в Факфаке (Индонезия) (187 км)
Погода в Амахаи (Индонезия) (222 км)
Погода в Туале (Индонезия) (298 км)
Погода в Амбоне (Индонезия) (305 км)
Погода в Аэропорту Соронг-Джефман (Индонезия) (321 км)
Погода в Каимана (Индонезия) (324 км)
Погода в Намлеа (Индонезия) (421 км)
Погода в Саумлаки (Индонезия) (468 км)
Погода в Маноквари (Индонезия) (483 км)

Пояснения к столбцам:

Ветер - указаны скорость ветра в м/с - средняя за 10 мин, порывы в срок и между сроками (в фигурных скобках) и направление, откуда дует ветер: С - северный, СВ - северо-восточный, В - восточный, ЮВ - юго-восточный, Ю - южный, ЮЗ - юго-западный, З - западный, СЗ - северо-западный.
Видимость - горизонтальная дальность видимости в метрах или километрах. При видимости от 1 до 10 км при отсутствии осадков обычно наблюдается дымка, при ухудшении видимости до 1 км и менее - туман. В сухую погоду видимость может ухудшаться дымом, пылью или мглою.
Явления - указаны атмосферные явления, наблюдавшиеся в срок или в последний час перед сроком; фигурными скобками обозначены явления, наблюдавшиеся между сроками (за 1-3 часа до срока); квадратными скобками обозначены град или гололедные отложения с указанием их диаметра в мм.
Облачность - указаны через наклонную черту общая и нижняя облачность в баллах и высота нижней границы облаков в метрах; квадратными скобками обозначены формы облаков: Ci - перистые, Cs - перисто-слоистые, Cc - перисто-кучевые, Ac - высококучевые, As - высокослоистые, Sc - слоисто-кучевые, Ns - слоисто-дождевые, Cu - кучевые, Cb - кучево-дождевые. Подробнее классификацию облаков см. в Атласе облаков (PDF).
T - Температура воздуха - температура, измеренная на высоте 2 м над землей.
Td - Температура точки росы - температура, при понижении до которой содержащийся в воздухе водяной пар достигнет насыщения.
f - Относительная влажность воздуха - влажноcть воздуха, измеренная на высоте 2 м над землей.
Te - Эффективная температура - температура, которую ощущает одетый по сезону человек в тени. Характеристика душности погоды. При расчете учитывается влияние влажности воздуха и скорости ветра на теплоощущения человека.
Tes - Эффективная температура на солнце - температура, которую ощущает человек, с поправкой на солнечный нагрев. Характеристика знойности погоды. Зависит от высоты солнца над горизонтом, облачности и скорости ветра. Ночью, в пасмурную погоду, а также при ветре 12 м/с и более поправка равна нулю.
P - Атмосферное давление - приведенное к уровню моря атмосферное давление.
Po - Атмосферное давление - измеренное на уровне метеостанции атмосферное давление.
Tmin - Минимальная температура - минимум температуры воздуха на высоте 2 м над землей.
Tmax - Максимальная температура - максимум температуры воздуха на высоте 2 м над землей.
R - Количество осадков - Количество выпавших осадков за период времени, мм. При наведении курсора мыши на число - период времени, за который выпало указанное количество осадков.
R24 - Количество осадков - Количество выпавших осадков за 24 часа, мм.
S - Снежный покров - Высота снежного покрова, см. При наведении курсора мыши на число - состояние снежного покрова и степень покрытия местности в баллах.